Athens Eleftherios, Greece

8:25 PM EEST on June 26, 2017 (GMT +0300)
Eleftherios Venizelos International

Weather History for LGAV - November, 2012

Change the Weather History Date:

Monday, November 5, 2012

  Actual Average (LGAT) Record (LGAT)
Temperature  
Mean Temperature 65 °F -  
Max Temperature 75 °F 67 °F 75 °F (1998)
Min Temperature 55 °F 55 °F 50 °F (2013)
Growing Degree Days 15 (Base 50)    
Moisture  
Dew Point 55 °F    
Average Humidity 69    
Maximum Humidity 88    
Minimum Humidity 47    
Precipitation  
Precipitation 0.00 in - - ()
Sea Level Pressure  
Sea Level Pressure 29.98 in    
Wind  
Wind Speed 4 mph ()    
Max Wind Speed 13 mph    
Max Gust Speed -    
Visibility 6.2 miles    
Events      
Averages and records for this station are not official NWS values.
T = Trace of Precipitation, MM = Missing Value Source: Averaged Metar Reports

Daily Weather History Graph

Daily Weather History Graph

Search for Another Location

Airport or City:

Trip Planner

Search our weather history database for the weather conditions in past years. The results will help you decide how hot, cold, wet, or windy it might be!

Date:

Astronomy

Nov. 05, 2012 Rise Set
Actual Time 6:54 AM EET 5:20 PM EET
Civil Twilight 6:26 AM EET 5:48 PM EET
Nautical Twilight 5:55 AM EET 6:19 PM EET
Astronomical Twilight 5:24 AM EET 6:50 PM EET
Moon 10:39 PM EET (11/5) 12:02 PM EET (11/5)
Length of Visible Light 11h 21m
Length of Day
10h 26m
Waning Gibbous, 66% of the Moon is Illuminated
Nov 5
Waning Gibbous
Nov 7
Last Quarter
Nov 14
New
Nov 20
First Quarter
Nov 28
Full

Hourly Weather History & Observations

Time (EET) Temp. Dew Point Humidity Pressure Visibility Wind Dir Wind Speed Gust Speed Precip Events Conditions
12:20 AM 60.8 °F 55.4 °F 82% 30.01 in 6.2 mi SSE 2.3 mph - N/A   Scattered Clouds
12:50 AM 60.8 °F 55.4 °F 82% 30.01 in 6.2 mi Calm Calm - N/A   Scattered Clouds
1:20 AM 57.2 °F 53.6 °F 88% 30.01 in 6.2 mi Calm Calm - N/A   Scattered Clouds
1:50 AM 57.2 °F 53.6 °F 88% 30.01 in 6.2 mi WNW 4.6 mph - N/A   Scattered Clouds
2:20 AM 57.2 °F 51.8 °F 82% 30.04 in 6.2 mi WNW 3.5 mph - N/A   Scattered Clouds
2:50 AM 59.0 °F 53.6 °F 82% 30.01 in 6.2 mi West 2.3 mph - N/A   Scattered Clouds
3:20 AM 57.2 °F 51.8 °F 82% 30.01 in 6.2 mi WNW 2.3 mph - N/A   Scattered Clouds
3:50 AM 55.4 °F 51.8 °F 88% 30.01 in 6.2 mi West 2.3 mph - N/A   Scattered Clouds
4:20 AM 55.4 °F 51.8 °F 88% 29.98 in 6.2 mi West 3.5 mph - N/A   Partly Cloudy
4:50 AM 55.4 °F 51.8 °F 88% 29.98 in 6.2 mi Variable 1.2 mph - N/A   Partly Cloudy
5:20 AM 57.2 °F 53.6 °F 88% 30.01 in 6.2 mi WNW 4.6 mph - N/A   Partly Cloudy
5:50 AM 57.2 °F 53.6 °F 88% 30.01 in 6.2 mi Calm Calm - N/A   Partly Cloudy
6:20 AM 55.4 °F 51.8 °F 88% 30.01 in 6.2 mi NW 2.3 mph - N/A   Partly Cloudy
6:50 AM 59.0 °F 51.8 °F 77% 30.01 in 6.2 mi West 3.5 mph - N/A   Mostly Cloudy
7:20 AM 60.8 °F 53.6 °F 77% 30.01 in 6.2 mi Variable 2.3 mph - N/A   Scattered Clouds
7:50 AM 59.0 °F 51.8 °F 77% 30.01 in 6.2 mi Variable 2.3 mph - N/A   Scattered Clouds
8:20 AM 60.8 °F 53.6 °F 77% 30.01 in 6.2 mi West 3.5 mph - N/A   Scattered Clouds
8:50 AM 62.6 °F 55.4 °F 77% 30.01 in 6.2 mi Variable 1.2 mph - N/A   Scattered Clouds
9:20 AM 66.2 °F 57.2 °F 73% 30.01 in 6.2 mi Variable 1.2 mph - N/A   Scattered Clouds
9:50 AM 69.8 °F 55.4 °F 60% 30.01 in 6.2 mi SW 5.8 mph - N/A   Scattered Clouds
10:20 AM 71.6 °F 55.4 °F 57% 30.01 in 6.2 mi WSW 4.6 mph - N/A   Scattered Clouds
10:50 AM 71.6 °F 51.8 °F 50% 30.01 in 6.2 mi SW 8.1 mph - N/A   Scattered Clouds
11:20 AM 71.6 °F 53.6 °F 53% 30.01 in 6.2 mi SW 6.9 mph - N/A   Scattered Clouds
11:50 AM 73.4 °F 51.8 °F 47% 29.98 in 6.2 mi SW 8.1 mph - N/A   Scattered Clouds
12:20 PM 73.4 °F 51.8 °F 47% 29.98 in 6.2 mi SW 6.9 mph - N/A   Scattered Clouds
12:50 PM 73.4 °F 51.8 °F 47% 29.98 in 6.2 mi SW 9.2 mph - N/A   Scattered Clouds
1:20 PM 73.4 °F 51.8 °F 47% 29.95 in 6.2 mi SW 11.5 mph - N/A   Scattered Clouds
1:50 PM 75.2 °F 53.6 °F 47% 29.95 in 6.2 mi SW 10.4 mph - N/A   Scattered Clouds
2:20 PM 73.4 °F 51.8 °F 47% 29.95 in 6.2 mi South 12.7 mph - N/A   Scattered Clouds
2:50 PM 73.4 °F 53.6 °F 50% 29.92 in 6.2 mi SSW 12.7 mph - N/A   Scattered Clouds
3:20 PM 73.4 °F 55.4 °F 53% 29.92 in 6.2 mi SW 11.5 mph - N/A   Scattered Clouds
3:50 PM 73.4 °F 55.4 °F 53% 29.95 in 6.2 mi SW 12.7 mph - N/A   Scattered Clouds
4:20 PM 71.6 °F 55.4 °F 57% 29.95 in 6.2 mi South 12.7 mph - N/A   Scattered Clouds
4:50 PM 69.8 °F 55.4 °F 60% 29.95 in 6.2 mi SSW 12.7 mph - N/A   Scattered Clouds
5:20 PM 68.0 °F 57.2 °F 68% 29.95 in 6.2 mi SSW 12.7 mph - N/A   Scattered Clouds
5:50 PM 68.0 °F 57.2 °F 68% 29.95 in 6.2 mi SW 11.5 mph - N/A   Scattered Clouds
6:20 PM 68.0 °F 57.2 °F 68% 29.95 in 6.2 mi SW 8.1 mph - N/A   Scattered Clouds
6:50 PM 68.0 °F 57.2 °F 68% 29.95 in 6.2 mi SW 8.1 mph - N/A   Scattered Clouds
7:20 PM 68.0 °F 57.2 °F 68% 29.95 in 6.2 mi SSW 5.8 mph - N/A   Scattered Clouds
7:50 PM 68.0 °F 57.2 °F 68% 29.95 in 6.2 mi SSW 5.8 mph - N/A   Scattered Clouds
8:20 PM 66.2 °F 57.2 °F 73% 29.95 in 6.2 mi Variable 3.5 mph - N/A   Scattered Clouds
8:50 PM 66.2 °F 57.2 °F 73% 29.95 in 6.2 mi SSW 5.8 mph - N/A   Scattered Clouds
9:20 PM 66.2 °F 57.2 °F 73% 29.98 in 6.2 mi SSW 4.6 mph - N/A   Partly Cloudy
9:50 PM 66.2 °F 57.2 °F 73% 29.98 in 6.2 mi SW 4.6 mph - N/A   Partly Cloudy
10:20 PM 66.2 °F 57.2 °F 73% 29.95 in 6.2 mi Variable 1.2 mph - N/A   Partly Cloudy
10:50 PM 66.2 °F 57.2 °F 73% 29.95 in 6.2 mi Variable 3.5 mph - N/A   Scattered Clouds
11:20 PM 66.2 °F 57.2 °F 73% 29.95 in 6.2 mi ESE 4.6 mph - N/A   Scattered Clouds
11:50 PM 68.0 °F 57.2 °F 68% 29.95 in 6.2 mi Variable 3.5 mph - N/A   Mostly Cloudy